Time,TemperatureF,DewpointF,PressureIn,WindDirection,WindDirectionDegrees,WindSpeedMPH,WindSpeedGustMPH,Humidity,HourlyPrecipIn,Conditions,Clouds,dailyrainin,SoftwareType,DateUTC
2013-04-28 00:01:00,50.9,43.6,30.00,NNW,335,0.0,0.0,76,0.00,,,0.00,Wunderground v.1.15,2013-04-28 05:01:00,
2013-04-28 00:07:00,50.8,43.8,29.99,NNW,335,0.0,0.0,77,0.00,,,0.00,Wunderground v.1.15,2013-04-28 05:07:00,
2013-04-28 00:13:00,50.5,43.6,29.99,NNW,335,0.0,0.0,77,0.00,,,0.00,Wunderground v.1.15,2013-04-28 05:13:00,
2013-04-28 00:19:00,50.4,43.5,29.99,NNW,335,0.0,0.0,77,0.00,,,0.00,Wunderground v.1.15,2013-04-28 05:19:00,
2013-04-28 00:24:00,50.1,43.5,29.99,NNW,335,0.0,0.0,78,0.00,,,0.00,Wunderground v.1.15,2013-04-28 05:24:00,
2013-04-28 00:30:00,49.9,43.3,29.99,NNW,335,0.0,0.0,78,0.00,,,0.00,Wunderground v.1.15,2013-04-28 05:30:00,
2013-04-28 00:37:00,49.6,43.4,29.99,NNW,335,0.0,0.0,79,0.00,,,0.00,Wunderground v.1.15,2013-04-28 05:37:00,
2013-04-28 00:43:00,49.3,43.4,29.99,NNW,335,0.0,0.0,80,0.00,,,0.00,Wunderground v.1.15,2013-04-28 05:43:00,
2013-04-28 00:48:00,49.1,43.2,29.99,NNW,335,0.0,0.0,80,0.00,,,0.00,Wunderground v.1.15,2013-04-28 05:48:00,
2013-04-28 00:54:00,48.9,43.0,29.99,NNW,335,0.0,-999.0,81,-99.99,,,0.00,weatherlink.com 1.10,2013-04-28 05:54:00,
2013-04-28 00:59:00,48.7,43.1,29.99,NNW,335,0.0,0.0,81,0.00,,,0.00,Wunderground v.1.15,2013-04-28 05:59:00,
2013-04-28 01:05:00,48.5,43.3,29.99,NNW,335,0.0,0.0,82,0.00,,,0.00,Wunderground v.1.15,2013-04-28 06:05:00,
2013-04-28 01:10:00,48.3,43.0,29.98,NNW,335,0.0,-999.0,81,-99.99,,,0.00,weatherlink.com 1.10,2013-04-28 06:10:00,
2013-04-28 01:15:00,48.2,43.0,29.99,NNW,335,0.0,0.0,82,0.00,,,0.00,Wunderground v.1.15,2013-04-28 06:15:00,
2013-04-28 01:21:00,48.0,42.8,29.98,NNW,335,0.0,0.0,82,0.00,,,0.00,Wunderground v.1.15,2013-04-28 06:21:00,
2013-04-28 01:27:00,47.9,42.7,29.98,NNW,335,0.0,0.0,82,0.00,,,0.00,Wunderground v.1.15,2013-04-28 06:27:00,
2013-04-28 01:32:00,47.8,42.6,29.97,NNW,335,0.0,0.0,82,0.00,,,0.00,Wunderground v.1.15,2013-04-28 06:32:00,
2013-04-28 01:38:00,47.6,42.4,29.97,NNW,335,0.0,0.0,82,0.00,,,0.00,Wunderground v.1.15,2013-04-28 06:38:00,
2013-04-28 01:44:00,47.5,42.6,29.97,NNW,335,0.0,0.0,83,0.00,,,0.00,Wunderground v.1.15,2013-04-28 06:44:00,
2013-04-28 01:50:00,47.3,42.4,29.97,NNW,335,0.0,0.0,83,0.00,,,0.00,Wunderground v.1.15,2013-04-28 06:50:00,
2013-04-28 01:55:00,47.2,42.3,29.97,NNW,335,0.0,0.0,83,0.00,,,0.00,Wunderground v.1.15,2013-04-28 06:55:00,
2013-04-28 02:00:00,47.0,42.4,29.97,NNW,335,0.0,0.0,84,0.00,,,0.00,Wunderground v.1.15,2013-04-28 07:00:00,
2013-04-28 02:05:00,46.8,42.2,29.97,NNW,335,0.0,0.0,84,0.00,,,0.00,Wunderground v.1.15,2013-04-28 07:05:00,
2013-04-28 02:10:00,46.7,42.1,29.97,NNW,335,0.0,0.0,84,0.00,,,0.00,Wunderground v.1.15,2013-04-28 07:10:00,
2013-04-28 02:15:00,46.6,42.0,29.96,NNW,335,0.0,0.0,84,0.00,,,0.00,Wunderground v.1.15,2013-04-28 07:15:00,
2013-04-28 02:20:00,46.5,41.9,29.96,NNW,335,0.0,1.0,84,0.00,,,0.00,Wunderground v.1.15,2013-04-28 07:20:00,
2013-04-28 02:25:00,46.3,42.0,29.96,NNW,335,0.0,1.0,85,0.00,,,0.00,Wunderground v.1.15,2013-04-28 07:25:00,
2013-04-28 02:30:00,46.3,42.0,29.96,NNW,335,0.0,0.0,85,0.00,,,0.00,Wunderground v.1.15,2013-04-28 07:30:00,
2013-04-28 02:35:00,46.2,41.9,29.95,NNW,335,0.0,0.0,85,0.00,,,0.00,Wunderground v.1.15,2013-04-28 07:35:00,
2013-04-28 02:40:00,46.2,41.9,29.95,NNW,335,0.0,0.0,85,0.00,,,0.00,Wunderground v.1.15,2013-04-28 07:40:00,
2013-04-28 02:45:00,46.1,41.8,29.95,NNW,335,0.0,0.0,85,0.00,,,0.00,Wunderground v.1.15,2013-04-28 07:45:00,
2013-04-28 02:50:00,46.0,41.7,29.95,NNW,335,0.0,0.0,85,0.00,,,0.00,Wunderground v.1.15,2013-04-28 07:50:00,
2013-04-28 02:56:00,45.9,41.6,29.95,NNW,335,0.0,0.0,85,0.00,,,0.00,Wunderground v.1.15,2013-04-28 07:56:00,
2013-04-28 03:01:00,45.9,41.6,29.95,NNW,335,0.0,0.0,85,0.00,,,0.00,Wunderground v.1.15,2013-04-28 08:01:00,
2013-04-28 03:06:00,45.8,41.5,29.94,NNW,335,0.0,0.0,85,0.00,,,0.00,Wunderground v.1.15,2013-04-28 08:06:00,
2013-04-28 03:11:00,45.7,41.4,29.94,NNW,335,0.0,0.0,85,0.00,,,0.00,Wunderground v.1.15,2013-04-28 08:11:00,
2013-04-28 03:16:00,45.6,41.4,29.94,NNW,335,0.0,0.0,85,0.00,,,0.00,Wunderground v.1.15,2013-04-28 08:16:00,
2013-04-28 03:21:00,45.5,41.3,29.94,NNW,335,0.0,0.0,85,0.00,,,0.00,Wunderground v.1.15,2013-04-28 08:21:00,
2013-04-28 03:26:00,45.4,41.5,29.94,NNW,335,0.0,0.0,86,0.00,,,0.00,Wunderground v.1.15,2013-04-28 08:26:00,
2013-04-28 03:31:00,45.3,41.4,29.95,NNW,335,0.0,0.0,86,0.00,,,0.00,Wunderground v.1.15,2013-04-28 08:31:00,
2013-04-28 03:36:00,45.1,41.2,29.94,NNW,335,0.0,0.0,86,0.00,,,0.00,Wunderground v.1.15,2013-04-28 08:36:00,
2013-04-28 03:41:00,45.1,41.5,29.94,NNW,335,0.0,0.0,87,0.00,,,0.00,Wunderground v.1.15,2013-04-28 08:41:00,
2013-04-28 03:46:00,45.1,41.5,29.94,NNW,335,0.0,0.0,87,0.00,,,0.00,Wunderground v.1.15,2013-04-28 08:46:00,
2013-04-28 03:51:00,45.0,41.4,29.94,NNW,335,0.0,0.0,87,0.00,,,0.00,Wunderground v.1.15,2013-04-28 08:51:00,
2013-04-28 03:56:00,44.9,41.3,29.94,NNW,335,0.0,0.0,87,0.00,,,0.00,Wunderground v.1.15,2013-04-28 08:56:00,
2013-04-28 04:01:00,44.9,41.3,29.94,NNW,335,0.0,0.0,87,0.00,,,0.00,Wunderground v.1.15,2013-04-28 09:01:00,
2013-04-28 04:06:00,44.8,41.2,29.94,NNW,335,0.0,0.0,87,0.00,,,0.00,Wunderground v.1.15,2013-04-28 09:06:00,
2013-04-28 04:11:00,44.7,41.1,29.94,NNW,335,0.0,0.0,87,0.00,,,0.00,Wunderground v.1.15,2013-04-28 09:11:00,
2013-04-28 04:16:00,44.6,41.0,29.94,NNW,335,0.0,0.0,87,0.00,,,0.00,Wunderground v.1.15,2013-04-28 09:16:00,
2013-04-28 04:21:00,44.5,40.9,29.94,NNW,335,0.0,0.0,87,0.00,,,0.00,Wunderground v.1.15,2013-04-28 09:21:00,
2013-04-28 04:26:00,44.5,40.9,29.94,NNW,335,0.0,0.0,87,0.00,,,0.00,Wunderground v.1.15,2013-04-28 09:26:00,
2013-04-28 04:31:00,44.3,40.7,29.94,NNW,335,0.0,0.0,87,0.00,,,0.00,Wunderground v.1.15,2013-04-28 09:31:00,
2013-04-28 04:37:00,44.1,40.8,29.93,NNW,335,0.0,0.0,88,0.00,,,0.00,Wunderground v.1.15,2013-04-28 09:37:00,
2013-04-28 04:42:00,44.0,40.7,29.93,NNW,335,0.0,0.0,88,0.00,,,0.00,Wunderground v.1.15,2013-04-28 09:42:00,
2013-04-28 04:47:00,43.8,40.5,29.93,NNW,335,0.0,0.0,88,0.00,,,0.00,Wunderground v.1.15,2013-04-28 09:47:00,
2013-04-28 04:52:00,43.6,40.3,29.93,NNW,335,0.0,0.0,88,0.00,,,0.00,Wunderground v.1.15,2013-04-28 09:52:00,
2013-04-28 04:57:00,43.5,40.2,29.93,NNW,335,0.0,0.0,88,0.00,,,0.00,Wunderground v.1.15,2013-04-28 09:57:00,
2013-04-28 05:02:00,43.4,40.1,29.93,NNW,335,0.0,0.0,88,0.00,,,0.00,Wunderground v.1.15,2013-04-28 10:02:00,
2013-04-28 05:07:00,43.3,40.0,29.93,NNW,335,0.0,0.0,88,0.00,,,0.00,Wunderground v.1.15,2013-04-28 10:07:00,
2013-04-28 05:12:00,43.2,40.2,29.93,NNW,335,0.0,0.0,89,0.00,,,0.00,Wunderground v.1.15,2013-04-28 10:12:00,
2013-04-28 05:17:00,43.1,40.1,29.93,NNW,335,0.0,0.0,89,0.00,,,0.00,Wunderground v.1.15,2013-04-28 10:17:00,
2013-04-28 05:22:00,43.1,40.1,29.92,NNW,335,0.0,0.0,89,0.00,,,0.00,Wunderground v.1.15,2013-04-28 10:22:00,
2013-04-28 05:27:00,43.1,40.1,29.93,NNW,335,0.0,0.0,89,0.00,,,0.00,Wunderground v.1.15,2013-04-28 10:27:00,
2013-04-28 05:32:00,43.0,40.3,29.93,NNW,335,0.0,0.0,90,0.00,,,0.00,Wunderground v.1.15,2013-04-28 10:32:00,
2013-04-28 05:37:00,42.9,40.2,29.93,NNW,335,0.0,0.0,90,0.00,,,0.00,Wunderground v.1.15,2013-04-28 10:37:00,
2013-04-28 05:42:00,42.9,40.2,29.93,NNW,335,0.0,1.0,90,0.00,,,0.00,Wunderground v.1.15,2013-04-28 10:42:00,
2013-04-28 05:47:00,42.9,40.2,29.93,NNW,335,0.0,1.0,90,0.00,,,0.00,Wunderground v.1.15,2013-04-28 10:47:00,
2013-04-28 05:53:00,42.9,40.2,29.93,NNW,335,0.0,0.0,90,0.00,,,0.00,Wunderground v.1.15,2013-04-28 10:53:00,
2013-04-28 05:58:00,43.0,40.3,29.93,NNW,335,0.0,0.0,90,0.00,,,0.00,Wunderground v.1.15,2013-04-28 10:58:00,
2013-04-28 06:03:00,42.9,40.2,29.93,NNW,335,0.0,0.0,90,0.00,,,0.00,Wunderground v.1.15,2013-04-28 11:03:00,
2013-04-28 06:08:00,42.9,40.2,29.93,NNW,335,0.0,0.0,90,0.00,,,0.00,Wunderground v.1.15,2013-04-28 11:08:00,
2013-04-28 06:13:00,42.9,40.2,29.93,NNW,335,0.0,0.0,90,0.00,,,0.00,Wunderground v.1.15,2013-04-28 11:13:00,
2013-04-28 06:18:00,42.9,40.2,29.93,NNW,335,0.0,0.0,90,0.00,,,0.00,Wunderground v.1.15,2013-04-28 11:18:00,
2013-04-28 06:23:00,43.0,40.3,29.93,NNW,335,0.0,0.0,90,0.00,,,0.00,Wunderground v.1.15,2013-04-28 11:23:00,
2013-04-28 06:28:00,43.0,40.3,29.93,NNW,335,0.0,0.0,90,0.00,,,0.00,Wunderground v.1.15,2013-04-28 11:28:00,
2013-04-28 06:33:00,43.1,40.4,29.93,NNW,335,0.0,0.0,90,0.00,,,0.00,Wunderground v.1.15,2013-04-28 11:33:00,
2013-04-28 06:38:00,43.2,40.5,29.93,NNW,335,0.0,0.0,90,0.00,,,0.00,Wunderground v.1.15,2013-04-28 11:38:00,
2013-04-28 06:43:00,43.3,40.8,29.92,NNW,335,0.0,0.0,91,0.00,,,0.00,Wunderground v.1.15,2013-04-28 11:43:00,
2013-04-28 06:48:00,43.4,40.9,29.93,NNW,335,0.0,0.0,91,0.00,,,0.00,Wunderground v.1.15,2013-04-28 11:48:00,
2013-04-28 06:53:00,43.6,41.1,29.93,NNW,335,0.0,0.0,91,0.00,,,0.00,Wunderground v.1.15,2013-04-28 11:53:00,
2013-04-28 06:58:00,43.9,41.4,29.93,NNW,335,0.0,0.0,91,0.00,,,0.00,Wunderground v.1.15,2013-04-28 11:58:00,
2013-04-28 07:03:00,44.2,41.5,29.93,NNW,335,0.0,0.0,90,0.00,,,0.00,Wunderground v.1.15,2013-04-28 12:03:00,
2013-04-28 07:08:00,44.6,41.6,29.93,NNW,335,0.0,0.0,89,0.00,,,0.00,Wunderground v.1.15,2013-04-28 12:08:00,
2013-04-28 07:13:00,45.0,42.2,29.93,NNW,335,0.0,0.0,90,0.00,,,0.00,Wunderground v.1.15,2013-04-28 12:13:00,
2013-04-28 07:18:00,45.4,42.3,29.93,NNW,335,0.0,0.0,89,0.00,,,0.00,Wunderground v.1.15,2013-04-28 12:18:00,
2013-04-28 07:23:00,45.7,42.3,29.93,NNW,335,0.0,0.0,88,0.00,,,0.00,Wunderground v.1.15,2013-04-28 12:23:00,
2013-04-28 07:28:00,46.0,42.3,29.93,NNW,335,0.0,0.0,87,0.00,,,0.00,Wunderground v.1.15,2013-04-28 12:28:00,
2013-04-28 07:34:00,46.4,42.4,29.93,NNE,22,0.0,2.0,86,0.00,,,0.00,Wunderground v.1.15,2013-04-28 12:34:00,
2013-04-28 07:39:00,46.7,42.4,29.93,NNE,22,0.0,2.0,85,0.00,,,0.00,Wunderground v.1.15,2013-04-28 12:39:00,
2013-04-28 07:44:00,47.1,42.5,29.94,NNE,22,0.0,1.0,84,0.00,,,0.00,Wunderground v.1.15,2013-04-28 12:44:00,
2013-04-28 07:49:00,47.4,42.8,29.94,NNE,22,0.0,1.0,84,0.00,,,0.00,Wunderground v.1.15,2013-04-28 12:49:00,
2013-04-28 07:54:00,47.7,43.1,29.94,NNE,22,0.0,1.0,84,0.00,,,0.00,Wunderground v.1.15,2013-04-28 12:54:00,
2013-04-28 07:59:00,47.8,43.2,29.94,NNE,22,0.0,1.0,84,0.00,,,0.00,Wunderground v.1.15,2013-04-28 12:59:00,
2013-04-28 08:04:00,48.1,43.2,29.94,NNE,22,0.0,0.0,83,0.00,,,0.00,Wunderground v.1.15,2013-04-28 13:04:00,
2013-04-28 08:09:00,48.3,43.4,29.94,NNE,22,0.0,1.0,83,0.00,,,0.00,Wunderground v.1.15,2013-04-28 13:09:00,
2013-04-28 08:14:00,48.6,43.7,29.94,NNE,22,0.0,0.0,83,0.00,,,0.00,Wunderground v.1.15,2013-04-28 13:14:00,
2013-04-28 08:19:00,48.9,44.0,29.94,NNE,22,0.0,0.0,83,0.00,,,0.00,Wunderground v.1.15,2013-04-28 13:19:00,
2013-04-28 08:24:00,49.3,44.0,29.94,NNE,22,0.0,0.0,82,0.00,,,0.00,Wunderground v.1.15,2013-04-28 13:24:00,
2013-04-28 08:29:00,49.7,44.1,29.94,NNE,22,0.0,0.0,81,0.00,,,0.00,Wunderground v.1.15,2013-04-28 13:29:00,
2013-04-28 08:34:00,50.0,44.1,29.94,NNE,22,0.0,0.0,80,0.00,,,0.00,Wunderground v.1.15,2013-04-28 13:34:00,
2013-04-28 08:39:00,50.4,44.1,29.94,NNE,22,0.0,0.0,79,0.00,,,0.00,Wunderground v.1.15,2013-04-28 13:39:00,
2013-04-28 08:44:00,50.9,44.3,29.93,NNE,22,0.0,0.0,78,0.00,,,0.00,Wunderground v.1.15,2013-04-28 13:44:00,
2013-04-28 08:50:00,51.4,44.8,29.93,NNE,24,1.0,1.0,78,0.00,,,0.00,Wunderground v.1.15,2013-04-28 13:50:00,
2013-04-28 08:55:00,52.0,45.0,29.93,NNE,24,0.0,1.0,77,0.00,,,0.00,Wunderground v.1.15,2013-04-28 13:55:00,
2013-04-28 09:00:00,52.4,45.4,29.93,NNE,24,0.0,1.0,77,0.00,,,0.00,Wunderground v.1.15,2013-04-28 14:00:00,
2013-04-28 09:05:00,52.9,45.5,29.93,ENE,76,2.0,2.0,76,0.00,,,0.00,Wunderground v.1.15,2013-04-28 14:05:00,
2013-04-28 09:10:00,53.7,45.6,29.93,South,175,0.0,1.0,74,0.00,,,0.00,Wunderground v.1.15,2013-04-28 14:10:00,
2013-04-28 09:15:00,54.7,46.2,29.92,South,178,0.0,2.0,73,0.00,,,0.00,Wunderground v.1.15,2013-04-28 14:15:00,
2013-04-28 09:20:00,56.0,46.4,29.92,SSE,161,0.0,1.0,70,0.00,,,0.00,Wunderground v.1.15,2013-04-28 14:20:00,
2013-04-28 09:25:00,57.0,45.7,29.92,South,177,0.0,2.0,66,0.00,,,0.00,Wunderground v.1.15,2013-04-28 14:25:00,
2013-04-28 09:30:00,57.6,45.9,29.92,SSW,204,0.0,1.0,65,0.00,,,0.00,Wunderground v.1.15,2013-04-28 14:30:00,
2013-04-28 09:35:00,57.9,46.2,29.92,SSE,156,0.0,2.0,65,0.00,,,0.00,Wunderground v.1.15,2013-04-28 14:35:00,
2013-04-28 09:40:00,58.1,46.0,29.92,SSE,156,0.0,0.0,64,0.00,,,0.00,Wunderground v.1.15,2013-04-28 14:40:00,
2013-04-28 09:45:00,58.4,45.8,29.92,SSE,156,0.0,0.0,63,0.00,,,0.00,Wunderground v.1.15,2013-04-28 14:45:00,
2013-04-28 09:50:00,58.6,46.0,29.92,SSE,156,0.0,1.0,63,0.00,,,0.00,Wunderground v.1.15,2013-04-28 14:50:00,
2013-04-28 09:55:00,58.8,46.2,29.92,SSE,156,0.0,1.0,63,0.00,,,0.00,Wunderground v.1.15,2013-04-28 14:55:00,
2013-04-28 10:00:00,59.2,46.2,29.91,SSE,152,0.0,1.0,62,0.00,,,0.00,Wunderground v.1.15,2013-04-28 15:00:00,
2013-04-28 10:05:00,59.5,46.9,29.91,SSE,152,0.0,1.0,63,0.00,,,0.00,Wunderground v.1.15,2013-04-28 15:05:00,
2013-04-28 10:10:00,59.6,46.6,29.91,SE,139,1.0,1.0,62,0.00,,,0.00,Wunderground v.1.15,2013-04-28 15:10:00,
2013-04-28 10:15:00,59.5,46.5,29.91,East,85,1.0,2.0,62,0.00,,,0.00,Wunderground v.1.15,2013-04-28 15:15:00,
2013-04-28 10:20:00,59.5,46.5,29.91,East,85,0.0,0.0,62,0.00,,,0.00,Wunderground v.1.15,2013-04-28 15:20:00,
2013-04-28 10:25:00,59.7,46.7,29.91,NE,52,0.0,2.0,62,0.00,,,0.00,Wunderground v.1.15,2013-04-28 15:25:00,
2013-04-28 10:30:00,60.0,46.5,29.91,NE,34,0.0,1.0,61,0.00,,,0.00,Wunderground v.1.15,2013-04-28 15:30:00,
2013-04-28 10:35:00,60.3,47.2,29.90,NNE,33,1.0,1.0,62,0.00,,,0.00,Wunderground v.1.15,2013-04-28 15:35:00,
2013-04-28 10:40:00,60.8,46.4,29.90,NNE,28,0.0,1.0,59,0.00,,,0.00,Wunderground v.1.15,2013-04-28 15:40:00,
2013-04-28 10:45:00,61.3,45.9,29.90,East,89,0.0,1.0,57,0.00,,,0.00,Wunderground v.1.15,2013-04-28 15:45:00,
2013-04-28 10:50:00,62.0,46.1,29.91,South,180,1.0,1.0,56,0.00,,,0.00,Wunderground v.1.15,2013-04-28 15:50:00,
2013-04-28 10:55:00,62.5,45.1,29.90,ESE,111,0.0,1.0,53,0.00,,,0.00,Wunderground v.1.15,2013-04-28 15:55:00,
2013-04-28 11:00:00,62.7,44.3,29.90,ESE,116,0.0,1.0,51,0.00,,,0.00,Wunderground v.1.15,2013-04-28 16:00:00,
2013-04-28 11:05:00,63.0,45.6,29.90,South,191,0.0,2.0,53,0.00,,,0.00,Wunderground v.1.15,2013-04-28 16:05:00,
2013-04-28 11:11:00,63.3,45.4,29.90,NNE,32,1.0,1.0,52,0.00,,,0.00,Wunderground v.1.15,2013-04-28 16:11:00,
2013-04-28 11:16:00,63.4,44.9,29.90,North,3,0.0,2.0,51,0.00,,,0.00,Wunderground v.1.15,2013-04-28 16:16:00,
2013-04-28 11:20:00,63.7,45.2,29.90,NNE,25,1.0,2.0,51,0.00,,,0.00,Wunderground v.1.15,2013-04-28 16:20:00,
2013-04-28 11:26:00,64.1,45.1,29.89,NE,52,0.0,2.0,50,0.00,,,0.00,Wunderground v.1.15,2013-04-28 16:26:00,
2013-04-28 11:31:00,64.6,45.5,29.90,ESE,110,0.0,0.0,50,0.00,,,0.00,Wunderground v.1.15,2013-04-28 16:31:00,
2013-04-28 11:36:00,64.9,45.3,29.90,NNW,337,0.0,2.0,49,0.00,,,0.00,Wunderground v.1.15,2013-04-28 16:36:00,
2013-04-28 11:41:00,65.3,45.1,29.90,South,191,0.0,1.0,48,0.00,,,0.00,Wunderground v.1.15,2013-04-28 16:41:00,
2013-04-28 11:46:00,65.6,45.4,29.89,WSW,256,1.0,1.0,48,0.00,,,0.00,Wunderground v.1.15,2013-04-28 16:46:00,
2013-04-28 11:51:00,65.8,45.0,29.89,SSW,205,0.0,1.0,47,0.00,,,0.00,Wunderground v.1.15,2013-04-28 16:51:00,
2013-04-28 11:56:00,66.1,43.5,29.88,NNW,343,1.0,3.0,44,0.00,,,0.00,Wunderground v.1.15,2013-04-28 16:56:00,
2013-04-28 12:01:00,66.1,45.3,29.88,NNW,339,3.0,3.0,47,0.00,,,0.00,Wunderground v.1.15,2013-04-28 17:01:00,
2013-04-28 12:06:00,66.2,44.2,29.88,North,355,1.0,5.0,45,0.00,,,0.00,Wunderground v.1.15,2013-04-28 17:06:00,
2013-04-28 12:11:00,66.3,44.9,29.87,NNW,346,0.0,4.0,46,0.00,,,0.00,Wunderground v.1.15,2013-04-28 17:11:00,
2013-04-28 12:16:00,66.6,45.2,29.88,NNW,345,1.0,4.0,46,0.00,,,0.00,Wunderground v.1.15,2013-04-28 17:16:00,
2013-04-28 12:21:00,66.7,44.1,29.87,NNW,343,0.0,1.0,44,0.00,,,0.00,Wunderground v.1.15,2013-04-28 17:21:00,
2013-04-28 12:26:00,67.0,44.4,29.87,NNW,345,4.0,5.0,44,0.00,,,0.00,Wunderground v.1.15,2013-04-28 17:26:00,
2013-04-28 12:31:00,67.5,44.2,29.87,NW,311,0.0,2.0,43,0.00,,,0.00,Wunderground v.1.15,2013-04-28 17:31:00,
2013-04-28 12:36:00,68.0,44.7,29.87,South,172,0.0,4.0,43,0.00,,,0.00,Wunderground v.1.15,2013-04-28 17:36:00,
2013-04-28 12:41:00,68.5,43.9,29.86,NW,320,0.0,1.0,41,0.00,,,0.00,Wunderground v.1.15,2013-04-28 17:41:00,
2013-04-28 12:46:00,68.9,44.2,29.86,WNW,282,0.0,3.0,41,0.00,,,0.00,Wunderground v.1.15,2013-04-28 17:46:00,
2013-04-28 12:51:00,69.4,43.4,29.86,NW,324,3.0,3.0,39,0.00,,,0.00,Wunderground v.1.15,2013-04-28 17:51:00,
2013-04-28 12:56:00,69.5,46.0,29.86,North,353,0.0,4.0,43,0.00,,,0.00,Wunderground v.1.15,2013-04-28 17:56:00,
2013-04-28 13:01:00,70.3,44.2,29.86,NE,37,3.0,3.0,39,0.00,,,0.00,Wunderground v.1.15,2013-04-28 18:01:00,
2013-04-28 13:06:00,70.7,44.5,29.86,West,265,1.0,3.0,39,0.00,,,0.00,Wunderground v.1.15,2013-04-28 18:06:00,
2013-04-28 13:11:00,71.3,45.1,29.85,SE,130,1.0,2.0,39,0.00,,,0.00,Wunderground v.1.15,2013-04-28 18:11:00,
2013-04-28 13:16:00,72.3,46.6,29.85,SW,218,0.0,4.0,40,0.00,,,0.00,Wunderground v.1.15,2013-04-28 18:16:00,
2013-04-28 13:21:00,71.8,43.4,29.85,NNW,341,5.0,10.0,36,0.00,,,0.00,Wunderground v.1.15,2013-04-28 18:21:00,
2013-04-28 13:26:00,70.8,44.6,29.85,NW,322,2.0,10.0,39,0.00,,,0.00,Wunderground v.1.15,2013-04-28 18:26:00,
2013-04-28 13:31:00,70.7,45.2,29.85,North,351,1.0,4.0,40,0.00,,,0.00,Wunderground v.1.15,2013-04-28 18:31:00,
2013-04-28 13:36:00,70.8,44.6,29.85,NNW,338,3.0,4.0,39,0.00,,,0.00,Wunderground v.1.15,2013-04-28 18:36:00,
2013-04-28 13:41:00,70.9,43.3,29.85,WNW,284,1.0,2.0,37,0.00,,,0.00,Wunderground v.1.15,2013-04-28 18:41:00,
2013-04-28 13:46:00,71.1,44.2,29.84,NNW,341,2.0,3.0,38,0.00,,,0.00,Wunderground v.1.15,2013-04-28 18:46:00,
2013-04-28 13:51:00,71.4,43.8,29.84,NNW,345,0.0,3.0,37,0.00,,,0.00,Wunderground v.1.15,2013-04-28 18:51:00,
2013-04-28 13:56:00,71.7,44.7,29.84,North,6,2.0,3.0,38,0.00,,,0.00,Wunderground v.1.15,2013-04-28 18:56:00,
2013-04-28 14:01:00,72.0,44.3,29.84,North,351,1.0,6.0,37,0.00,,,0.00,Wunderground v.1.15,2013-04-28 19:01:00,
2013-04-28 14:06:00,72.2,45.2,29.84,NNW,339,2.0,6.0,38,0.00,,,0.00,Wunderground v.1.15,2013-04-28 19:06:00,
2013-04-28 14:12:00,72.3,44.6,29.84,ESE,103,2.0,3.0,37,0.00,,,0.00,Wunderground v.1.15,2013-04-28 19:12:00,
2013-04-28 14:17:00,72.6,44.1,29.84,ESE,114,1.0,4.0,36,0.00,,,0.00,Wunderground v.1.15,2013-04-28 19:17:00,
2013-04-28 14:22:00,72.3,43.8,29.84,NNW,348,1.0,6.0,36,0.00,,,0.00,Wunderground v.1.15,2013-04-28 19:22:00,
2013-04-28 14:27:00,72.4,43.9,29.84,SSE,166,1.0,6.0,36,0.00,,,0.00,Wunderground v.1.15,2013-04-28 19:27:00,
2013-04-28 14:32:00,72.7,44.9,29.84,North,349,1.0,4.0,37,0.00,,,0.00,Wunderground v.1.15,2013-04-28 19:32:00,
2013-04-28 14:37:00,73.2,43.9,29.84,NW,307,2.0,4.0,35,0.00,,,0.00,Wunderground v.1.15,2013-04-28 19:37:00,
2013-04-28 14:42:00,73.3,44.0,29.83,North,1,1.0,3.0,35,0.00,,,0.00,Wunderground v.1.15,2013-04-28 19:42:00,
2013-04-28 14:47:00,72.6,43.4,29.83,NNW,348,0.0,3.0,35,0.00,,,0.00,Wunderground v.1.15,2013-04-28 19:47:00,
2013-04-28 14:52:00,72.5,44.0,29.83,NNW,339,2.0,4.0,36,0.00,,,0.00,Wunderground v.1.15,2013-04-28 19:52:00,
2013-04-28 14:57:00,72.6,44.1,29.83,WNW,291,1.0,4.0,36,0.00,,,0.00,Wunderground v.1.15,2013-04-28 19:57:00,
2013-04-28 15:02:00,72.6,44.1,29.82,North,350,0.0,3.0,36,0.00,,,0.00,Wunderground v.1.15,2013-04-28 20:02:00,
2013-04-28 15:07:00,72.7,44.2,29.82,NW,316,2.0,4.0,36,0.00,,,0.00,Wunderground v.1.15,2013-04-28 20:07:00,
2013-04-28 15:12:00,72.7,43.5,29.82,WNW,300,0.0,2.0,35,0.00,,,0.00,Wunderground v.1.15,2013-04-28 20:12:00,
2013-04-28 15:17:00,72.6,44.1,29.82,NNW,332,2.0,4.0,36,0.00,,,0.00,Wunderground v.1.15,2013-04-28 20:17:00,
2013-04-28 15:22:00,72.8,44.3,29.81,NNW,337,0.0,5.0,36,0.00,,,0.00,Wunderground v.1.15,2013-04-28 20:22:00,
2013-04-28 15:28:00,72.9,43.6,29.81,North,349,1.0,5.0,35,0.00,,,0.00,Wunderground v.1.15,2013-04-28 20:28:00,
2013-04-28 15:33:00,72.7,44.2,29.81,NNW,341,2.0,3.0,36,0.00,,,0.00,Wunderground v.1.15,2013-04-28 20:33:00,
2013-04-28 15:38:00,72.6,44.1,29.81,NNW,346,0.0,5.0,36,0.00,,,0.00,Wunderground v.1.15,2013-04-28 20:38:00,
2013-04-28 15:43:00,72.6,44.8,29.81,SE,145,0.0,3.0,37,0.00,,,0.00,Wunderground v.1.15,2013-04-28 20:43:00,
2013-04-28 15:48:00,73.0,43.7,29.81,NNW,344,1.0,5.0,35,0.00,,,0.00,Wunderground v.1.15,2013-04-28 20:48:00,
2013-04-28 15:53:00,73.0,44.5,29.81,North,6,1.0,5.0,36,0.00,,,0.00,Wunderground v.1.15,2013-04-28 20:53:00,
2013-04-28 15:58:00,72.9,45.1,29.81,ESE,120,0.0,5.0,37,0.00,,,0.00,Wunderground v.1.15,2013-04-28 20:58:00,
2013-04-28 16:03:00,73.3,45.4,29.81,NW,319,1.0,3.0,37,0.00,,,0.00,Wunderground v.1.15,2013-04-28 21:03:00,
2013-04-28 16:08:00,73.9,45.3,29.81,SSE,161,1.0,4.0,36,0.00,,,0.00,Wunderground v.1.15,2013-04-28 21:08:00,
2013-04-28 16:13:00,73.7,45.8,29.81,ESE,111,0.0,4.0,37,0.00,,,0.00,Wunderground v.1.15,2013-04-28 21:13:00,
2013-04-28 16:18:00,73.7,45.8,29.81,SE,125,4.0,4.0,37,0.00,,,0.00,Wunderground v.1.15,2013-04-28 21:18:00,
2013-04-28 16:23:00,73.7,45.1,29.81,West,270,0.0,4.0,36,0.00,,,0.00,Wunderground v.1.15,2013-04-28 21:23:00,
2013-04-28 16:28:00,73.4,44.8,29.81,SE,132,3.0,4.0,36,0.00,,,0.00,Wunderground v.1.15,2013-04-28 21:28:00,
2013-04-28 16:33:00,73.1,44.5,29.81,SE,145,1.0,3.0,36,0.00,,,0.00,Wunderground v.1.15,2013-04-28 21:33:00,
2013-04-28 16:38:00,72.5,44.7,29.81,East,92,1.0,3.0,37,0.00,,,0.00,Wunderground v.1.15,2013-04-28 21:38:00,
2013-04-28 16:43:00,72.3,44.6,29.81,NE,51,0.0,1.0,37,0.00,,,0.00,Wunderground v.1.15,2013-04-28 21:43:00,
2013-04-28 16:48:00,72.0,44.3,29.80,North,358,2.0,3.0,37,0.00,,,0.00,Wunderground v.1.15,2013-04-28 21:48:00,
2013-04-28 16:53:00,71.7,44.7,29.81,North,350,0.0,3.0,38,0.00,,,0.00,Wunderground v.1.15,2013-04-28 21:53:00,
2013-04-28 16:58:00,71.4,44.5,29.80,WNW,287,0.0,3.0,38,0.00,,,0.00,Wunderground v.1.15,2013-04-28 21:58:00,
2013-04-28 17:03:00,71.2,44.3,29.80,North,358,1.0,3.0,38,0.00,,,0.00,Wunderground v.1.15,2013-04-28 22:03:00,
2013-04-28 17:08:00,71.1,44.2,29.80,NNW,347,0.0,3.0,38,0.00,,,0.00,Wunderground v.1.15,2013-04-28 22:08:00,
2013-04-28 17:13:00,71.0,44.1,29.79,North,356,1.0,2.0,38,0.00,,,0.00,Wunderground v.1.15,2013-04-28 22:13:00,
2013-04-28 17:18:00,70.7,44.5,29.79,North,354,0.0,3.0,39,0.00,,,0.00,Wunderground v.1.15,2013-04-28 22:18:00,
2013-04-28 17:23:00,70.7,44.5,29.79,NNW,348,0.0,2.0,39,0.00,,,0.00,Wunderground v.1.15,2013-04-28 22:23:00,
2013-04-28 17:29:00,70.5,44.3,29.79,NNW,343,0.0,2.0,39,0.00,,,0.00,Wunderground v.1.15,2013-04-28 22:29:00,
2013-04-28 17:34:00,70.5,45.0,29.79,East,93,1.0,3.0,40,0.00,,,0.00,Wunderground v.1.15,2013-04-28 22:34:00,
2013-04-28 17:39:00,70.5,44.3,29.79,North,1,0.0,3.0,39,0.00,,,0.00,Wunderground v.1.15,2013-04-28 22:39:00,
2013-04-28 17:44:00,70.6,44.4,29.79,North,1,0.0,1.0,39,0.00,,,0.00,Wunderground v.1.15,2013-04-28 22:44:00,
2013-04-28 17:49:00,70.7,44.5,29.79,North,359,0.0,1.0,39,0.00,,,0.00,Wunderground v.1.15,2013-04-28 22:49:00,
2013-04-28 17:54:00,70.8,44.6,29.79,NW,326,0.0,2.0,39,0.00,,,0.00,Wunderground v.1.15,2013-04-28 22:54:00,
2013-04-28 17:59:00,70.8,44.6,29.78,NNW,345,1.0,2.0,39,0.00,,,0.00,Wunderground v.1.15,2013-04-28 22:59:00,
2013-04-28 18:04:00,70.7,44.5,29.78,NW,322,0.0,1.0,39,0.00,,,0.00,Wunderground v.1.15,2013-04-28 23:04:00,
2013-04-28 18:09:00,70.5,45.0,29.78,NNW,337,2.0,2.0,40,0.00,,,0.00,Wunderground v.1.15,2013-04-28 23:09:00,
2013-04-28 18:14:00,70.4,44.9,29.78,NNW,336,0.0,1.0,40,0.00,,,0.00,Wunderground v.1.15,2013-04-28 23:14:00,
2013-04-28 18:19:00,70.4,45.6,29.78,NNW,336,0.0,1.0,41,0.00,,,0.00,Wunderground v.1.15,2013-04-28 23:19:00,
2013-04-28 18:24:00,70.4,44.9,29.77,NNW,336,0.0,2.0,40,0.00,,,0.00,Wunderground v.1.15,2013-04-28 23:24:00,
2013-04-28 18:29:00,70.4,45.6,29.77,NNW,337,0.0,1.0,41,0.00,,,0.00,Wunderground v.1.15,2013-04-28 23:29:00,
2013-04-28 18:34:00,70.3,46.1,29.77,West,281,1.0,1.0,42,0.00,,,0.00,Wunderground v.1.15,2013-04-28 23:34:00,
2013-04-28 18:39:00,70.3,45.5,29.78,West,281,0.0,0.0,41,0.00,,,0.00,Wunderground v.1.15,2013-04-28 23:39:00,
2013-04-28 18:44:00,70.2,45.4,29.78,West,281,0.0,1.0,41,0.00,,,0.00,Wunderground v.1.15,2013-04-28 23:44:00,
2013-04-28 18:49:00,70.1,45.9,29.78,West,275,0.0,0.0,42,0.00,,,0.00,Wunderground v.1.15,2013-04-28 23:49:00,
2013-04-28 18:54:00,69.9,45.8,29.78,West,275,0.0,1.0,42,0.00,,,0.00,Wunderground v.1.15,2013-04-28 23:54:00,
2013-04-28 18:59:00,69.8,45.7,29.78,West,275,0.0,1.0,42,0.00,,,0.00,Wunderground v.1.15,2013-04-28 23:59:00,
2013-04-28 19:04:00,69.6,46.1,29.78,West,275,0.0,1.0,43,0.00,,,0.00,Wunderground v.1.15,2013-04-29 00:04:00,
2013-04-28 19:09:00,69.4,45.9,29.78,West,275,0.0,0.0,43,0.00,,,0.00,Wunderground v.1.15,2013-04-29 00:09:00,
2013-04-28 19:14:00,69.2,45.7,29.78,West,275,0.0,0.0,43,0.00,,,0.00,Wunderground v.1.15,2013-04-29 00:14:00,
2013-04-28 19:20:00,69.0,45.6,29.77,West,275,0.0,0.0,43,0.00,,,0.00,Wunderground v.1.15,2013-04-29 00:20:00,
2013-04-28 19:25:00,68.8,46.0,29.77,West,275,0.0,0.0,44,0.00,,,0.00,Wunderground v.1.15,2013-04-29 00:25:00,
2013-04-28 19:30:00,68.5,46.3,29.78,West,275,0.0,0.0,45,0.00,,,0.00,Wunderground v.1.15,2013-04-29 00:30:00,
2013-04-28 19:35:00,68.1,46.5,29.78,West,275,0.0,1.0,46,0.00,,,0.00,Wunderground v.1.15,2013-04-29 00:35:00,
2013-04-28 19:40:00,67.8,46.8,29.78,West,275,0.0,0.0,47,0.00,,,0.00,Wunderground v.1.15,2013-04-29 00:40:00,
2013-04-28 19:44:00,67.5,47.1,29.78,West,275,0.0,0.0,48,0.00,,,0.00,Wunderground v.1.15,2013-04-29 00:44:00,
2013-04-28 19:50:00,67.2,47.4,29.78,West,275,0.0,0.0,49,0.00,,,0.00,Wunderground v.1.15,2013-04-29 00:50:00,
2013-04-28 19:55:00,66.9,47.1,29.78,West,275,0.0,0.0,49,0.00,,,0.00,Wunderground v.1.15,2013-04-29 00:55:00,
2013-04-28 20:00:00,66.7,47.5,29.78,West,276,0.0,0.0,50,0.00,,,0.00,Wunderground v.1.15,2013-04-29 01:00:00,
2013-04-28 20:05:00,66.4,47.7,29.78,West,276,0.0,0.0,51,0.00,,,0.00,Wunderground v.1.15,2013-04-29 01:05:00,
2013-04-28 20:10:00,66.1,47.4,29.79,West,276,0.0,0.0,51,0.00,,,0.00,Wunderground v.1.15,2013-04-29 01:10:00,
2013-04-28 20:15:00,65.7,47.6,29.78,West,276,0.0,0.0,52,0.00,,,0.00,Wunderground v.1.15,2013-04-29 01:15:00,
2013-04-28 20:20:00,65.5,47.4,29.78,West,276,0.0,0.0,52,0.00,,,0.00,Wunderground v.1.15,2013-04-29 01:20:00,
2013-04-28 20:25:00,65.2,47.6,29.79,West,276,0.0,0.0,53,0.00,,,0.00,Wunderground v.1.15,2013-04-29 01:25:00,
2013-04-28 20:30:00,65.0,47.9,29.79,West,276,0.0,0.0,54,0.00,,,0.00,Wunderground v.1.15,2013-04-29 01:30:00,
2013-04-28 20:35:00,64.7,48.2,29.78,West,276,0.0,0.0,55,0.00,,,0.00,Wunderground v.1.15,2013-04-29 01:35:00,
2013-04-28 20:40:00,64.4,48.4,29.79,West,276,0.0,0.0,56,0.00,,,0.00,Wunderground v.1.15,2013-04-29 01:40:00,
2013-04-28 20:45:00,64.2,48.2,29.79,West,276,0.0,0.0,56,0.00,,,0.00,Wunderground v.1.15,2013-04-29 01:45:00,
2013-04-28 20:50:00,64.0,48.5,29.80,West,276,0.0,0.0,57,0.00,,,0.00,Wunderground v.1.15,2013-04-29 01:50:00,
2013-04-28 20:55:00,63.8,48.7,29.80,West,276,0.0,0.0,58,0.00,,,0.00,Wunderground v.1.15,2013-04-29 01:55:00,
2013-04-28 21:00:00,63.6,48.5,29.80,West,276,0.0,0.0,58,0.00,,,0.00,Wunderground v.1.15,2013-04-29 02:00:00,
2013-04-28 21:05:00,63.4,48.8,29.80,West,276,0.0,0.0,59,0.00,,,0.00,Wunderground v.1.15,2013-04-29 02:05:00,
2013-04-28 21:10:00,63.2,49.1,29.80,West,276,0.0,0.0,60,0.00,,,0.00,Wunderground v.1.15,2013-04-29 02:10:00,
2013-04-28 21:15:00,63.0,48.9,29.80,West,276,0.0,1.0,60,0.00,,,0.00,Wunderground v.1.15,2013-04-29 02:15:00,
2013-04-28 21:20:00,62.7,49.1,29.80,West,276,0.0,0.0,61,0.00,,,0.00,Wunderground v.1.15,2013-04-29 02:20:00,
2013-04-28 21:25:00,62.5,49.3,29.80,West,276,1.0,1.0,62,0.00,,,0.00,Wunderground v.1.15,2013-04-29 02:25:00,
2013-04-28 21:30:00,62.3,49.1,29.80,West,276,0.0,0.0,62,0.00,,,0.00,Wunderground v.1.15,2013-04-29 02:30:00,
2013-04-28 21:35:00,62.1,49.4,29.80,West,276,0.0,0.0,63,0.00,,,0.00,Wunderground v.1.15,2013-04-29 02:35:00,
2013-04-28 21:40:00,61.9,49.2,29.80,West,276,0.0,0.0,63,0.00,,,0.00,Wunderground v.1.15,2013-04-29 02:40:00,
2013-04-28 21:45:00,61.7,49.0,29.80,West,276,0.0,0.0,63,0.00,,,0.00,Wunderground v.1.15,2013-04-29 02:45:00,
2013-04-28 21:50:00,61.6,48.9,29.80,West,276,0.0,0.0,63,0.00,,,0.00,Wunderground v.1.15,2013-04-29 02:50:00,
2013-04-28 21:55:00,61.4,49.1,29.80,West,276,0.0,1.0,64,0.00,,,0.00,Wunderground v.1.15,2013-04-29 02:55:00,
2013-04-28 22:00:00,61.3,49.4,29.80,West,276,0.0,0.0,65,0.00,,,0.00,Wunderground v.1.15,2013-04-29 03:00:00,
2013-04-28 22:05:00,61.1,49.2,29.80,West,276,0.0,0.0,65,0.00,,,0.00,Wunderground v.1.15,2013-04-29 03:05:00,
2013-04-28 22:10:00,60.9,49.1,29.80,West,276,0.0,0.0,65,0.00,,,0.00,Wunderground v.1.15,2013-04-29 03:10:00,
2013-04-28 22:15:00,60.8,49.4,29.80,West,276,0.0,0.0,66,0.00,,,0.00,Wunderground v.1.15,2013-04-29 03:15:00,
2013-04-28 22:20:00,60.7,49.3,29.80,West,276,0.0,0.0,66,0.00,,,0.00,Wunderground v.1.15,2013-04-29 03:20:00,
2013-04-28 22:25:00,60.5,49.1,29.80,West,276,0.0,0.0,66,0.00,,,0.00,Wunderground v.1.15,2013-04-29 03:25:00,
2013-04-28 22:30:00,60.4,49.4,29.80,West,276,0.0,0.0,67,0.00,,,0.00,Wunderground v.1.15,2013-04-29 03:30:00,
2013-04-28 22:35:00,60.2,49.6,29.80,West,276,0.0,0.0,68,0.00,,,0.00,Wunderground v.1.15,2013-04-29 03:35:00,
2013-04-28 22:40:00,60.0,49.4,29.80,West,276,0.0,0.0,68,0.00,,,0.00,Wunderground v.1.15,2013-04-29 03:40:00,
2013-04-28 22:45:00,59.8,49.2,29.80,West,276,0.0,0.0,68,0.00,,,0.00,Wunderground v.1.15,2013-04-29 03:45:00,
2013-04-28 22:50:00,59.6,49.4,29.80,West,276,0.0,0.0,69,0.00,,,0.00,Wunderground v.1.15,2013-04-29 03:50:00,
2013-04-28 22:55:00,59.4,49.6,29.81,West,276,0.0,0.0,70,0.00,,,0.00,Wunderground v.1.15,2013-04-29 03:55:00,
2013-04-28 23:00:00,59.2,49.4,29.81,West,276,0.0,0.0,70,0.00,,,0.00,Wunderground v.1.15,2013-04-29 04:00:00,
2013-04-28 23:01:00,59.2,49.4,29.81,West,276,0.0,0.0,70,0.00,,,0.00,Wunderground v.1.15,2013-04-29 04:01:00,
2013-04-28 23:06:00,59.1,49.7,29.81,West,276,0.0,0.0,71,0.00,,,0.00,Wunderground v.1.15,2013-04-29 04:06:00,
2013-04-28 23:11:00,58.9,49.5,29.81,West,276,0.0,0.0,71,0.00,,,0.00,Wunderground v.1.15,2013-04-29 04:11:00,
2013-04-28 23:16:00,58.6,49.6,29.81,West,276,0.0,0.0,72,0.00,,,0.00,Wunderground v.1.15,2013-04-29 04:16:00,
2013-04-28 23:21:00,58.4,49.4,29.81,West,276,0.0,0.0,72,0.00,,,0.00,Wunderground v.1.15,2013-04-29 04:21:00,
2013-04-28 23:26:00,58.1,49.5,29.81,West,276,0.0,0.0,73,0.00,,,0.00,Wunderground v.1.15,2013-04-29 04:26:00,
2013-04-28 23:31:00,57.9,49.7,29.81,West,276,0.0,0.0,74,0.00,,,0.00,Wunderground v.1.15,2013-04-29 04:31:00,
2013-04-28 23:36:00,57.8,49.6,29.80,West,276,0.0,0.0,74,0.00,,,0.00,Wunderground v.1.15,2013-04-29 04:36:00,
2013-04-28 23:41:00,57.7,49.8,29.80,West,276,0.0,0.0,75,0.00,,,0.00,Wunderground v.1.15,2013-04-29 04:41:00,
2013-04-28 23:46:00,57.6,49.7,29.80,West,276,0.0,0.0,75,0.00,,,0.00,Wunderground v.1.15,2013-04-29 04:46:00,
2013-04-28 23:52:00,57.5,50.0,29.80,West,276,0.0,0.0,76,0.00,,,0.00,Wunderground v.1.15,2013-04-29 04:52:00,
2013-04-28 23:57:00,57.4,49.9,29.80,West,276,0.0,0.0,76,0.00,,,0.00,Wunderground v.1.15,2013-04-29 04:57:00,